Regional Weather Roundup
Issued by NWS

Home | Current Version | Previous Version | Text Only | Print | Product List | Glossary Off
Versions: 1 2 3 4 5 6 7 8 9 10 11 12 13 14 15 16 17 18 19 20 21 22 23 24 25 26

000
ASUS45 KCYS 112210
RWRWY

WYOMING REGIONAL WEATHER ROUNDUP
NATIONAL WEATHER SERVICE CHEYENNE WY
300 PM MST MON DEC 11 2017

NOTE:  "FAIR" INDICATES FEW OR NO CLOUDS BELOW 12,000 FEET
WITH NO SIGNIFICANT WEATHER AND/OR OBSTRUCTIONS TO VISIBILITY.

WYZ001-112300-
YELLOWSTONE NATIONAL PARK

CITY           SKY/WX    TMP DP  RH WIND       PRES   REMARKS
LK YELLOWSTONE   N/A     30  22  72 CALM      30.54F
W YELLOWSTONE  NOT AVBL

$$
WYZ002>013-054>058-071-098>099-112300-
NORTHERN WYOMING

CITY           SKY/WX    TMP DP  RH WIND       PRES   REMARKS
JACKSON        FAIR      34  14  43 CALM      30.54F
CODY           FAIR      49  12  22 CALM      30.43F
GREYBULL       FAIR      40  17  39 CALM      30.42F
WORLAND        FAIR      43  20  39 CALM      30.42F
SHERIDAN       FAIR      48  18  30 NW7       30.40S
BUFFALO        FAIR      46  13  26 NW12G20   30.40R
GILLETTE       FAIR      43  15  32 N14       30.38S
HULETT         CLOUDY    36  21  55 N6        30.39S WCI  31
NEWCASTLE      FAIR      41  16  36 NW18G29   30.34F

$$
WYZ014>020-022>026-101>103-112300-
CENTRAL WYOMING

CITY           SKY/WX    TMP DP  RH WIND       PRES   REMARKS
BIG PINEY      FAIR      56  14  19 N13G22    30.45S
PINEDALE       FAIR      52  10  19 NW21G29   30.44S
DUBOIS         FAIR      50  12  22 W23G30    30.43S
LANDER         FAIR      37  23  56 S3        30.45R
RIVERTON       FAIR      39  19  44 CALM      30.46R
CASPER         FAIR      42  20  41 SW7       30.43R
DOUGLAS        FAIR      46  20  35 W17       30.38F

$$
WYZ021-027>030-104>119-112300-
SOUTHERN WYOMING

CITY           SKY/WX    TMP DP  RH WIND       PRES   REMARKS
EVANSTON       FAIR      46  12  25 N5        30.51F
FORT BRIDGER   FAIR      55   3  12 W9        30.51F
ROCK SPRINGS   FAIR      48   2  15 CALM      30.46S
DIXON          FAIR      40  16  37 CALM      30.50F
RAWLINS        FAIR      41  14  33 SW9       30.47S
SARATOGA       FAIR      39  16  38 CALM      30.48F
LARAMIE        FAIR      44  11  26 NW18G30   30.42R
CHEYENNE       FAIR      48   9  20 NW20G36   30.37R
TORRINGTON     FAIR      51  13  21 NW25G32   30.34S
PINE BLUFFS    FAIR      48  10  21 N21G26    30.37R

$$




USA.gov is the U.S. government's official web portal to all federal, state and local government web resources and services.